Location: Hurstbourne Priors
(51.2000°N, 1.3667°W)
Time: 12:44:34
(UTC+00:00)

Mayak - Pass Details

Date: 09 April 2020
Orbit: 581 x 601 km, 97.5° (Epoch: 28 May)

Event Time Altitude Azimuth Distance (km) Brightness Sun altitude
Rises 22:00:40 0° 18° (NNE) 2,825 ? -24.8°
Reaches altitude 10° 22:02:55 10° 25° (NNE) 1,917 ? -25.0°
Enters shadow 22:05:13 29° 44° (NE) 1,097 ? -25.2°
